Retour au catalogue

DMSP 5D-2 F11 DEB

ActifSSO
NORAD 28327·DEBRIS·🇺🇸 United States

Lancé Nov 28, 1991 depuis Vandenberg Space Force Base

Loading…

Prochains Passages (prochaines 24 heures)

TLE

FraisSource: Space-Track

Époque: Sep 13, 2026, 12:53 UTC

1 28327U 91082AQ  26256.53714293  .00003976  00000-0  10187-2 0  9991
2 28327  98.6719 351.5786 0021473  68.6973 302.7127 14.50780581689379

Suivez DMSP 5D-2 F11 DEB en temps réel avec AllMySat

Download on the App Store